Location: Newark
(32.9167°N, 112.9667°W)
Time: 03:27:40
(UTC+00:00)

ISS - Visible Passes

Search period start: 19 March 2019 00:00
Search period end: 29 March 2019 00:00
Orbit: 406 x 411 km, 51.6° (Epoch: 19 March)

Date Brightness Start Highest point End Pass type
(mag) Time Alt. Az. Time Alt. Az. Time Alt. Az.
19 Mar -1.6 02:29:49 10° SSE 02:30:31 11° SE 02:30:31 11° SE visible
19 Mar -1.6 12:16:58 15° S 12:16:58 15° S 12:17:50 10° S visible
20 Mar -3.6 03:12:57 10° SW 03:15:46 63° SSW 03:15:46 63° SSW visible
21 Mar -3.1 02:22:14 10° SSW 02:25:16 34° SE 02:28:01 12° ENE visible
21 Mar -0.8 03:59:28 10° W 04:00:49 16° WNW 04:00:49 16° WNW visible
22 Mar -2.1 03:07:42 10° WSW 03:10:43 33° NW 03:12:49 16° NNE visible
23 Mar -3.5 02:16:21 10° SW 02:19:38 69° NW 02:22:55 10° NE visible
24 Mar -0.9 03:03:25 10° WNW 03:05:22 15° NNW 03:07:19 10° N visible
25 Mar -1.5 02:11:21 10° W 02:14:08 24° NW 02:16:54 10° NNE visible
